TimeEST,TemperatureF,Dew PointF,Humidity,Sea Level PressureIn,VisibilityMPH,Wind Direction,Wind SpeedMPH,Gust SpeedMPH,PrecipitationIn,Events,Conditions,WindDirDegrees,DateUTC
12:52 AM,28.9,24.1,82,30.48,10.0,Calm,Calm,-,N/A,,Clear,0,2013-11-29 05:52:00
1:52 AM,30.9,24.1,76,30.48,10.0,Calm,Calm,-,N/A,,Partly Cloudy,0,2013-11-29 06:52:00
2:52 AM,30.0,24.1,79,30.48,10.0,Calm,Calm,-,N/A,,Clear,0,2013-11-29 07:52:00
3:52 AM,28.0,25.0,88,30.48,10.0,Calm,Calm,-,N/A,,Clear,0,2013-11-29 08:52:00
4:52 AM,25.0,23.0,92,30.48,10.0,NNW,4.6,-,N/A,,Clear,340,2013-11-29 09:52:00
5:52 AM,27.0,24.1,89,30.49,10.0,Calm,Calm,-,N/A,,Clear,0,2013-11-29 10:52:00
6:52 AM,28.0,24.1,85,30.51,10.0,Calm,Calm,-,N/A,,Partly Cloudy,0,2013-11-29 11:52:00
7:52 AM,28.0,25.0,88,30.53,10.0,Calm,Calm,-,N/A,,Partly Cloudy,0,2013-11-29 12:52:00
8:52 AM,37.9,28.9,70,30.55,10.0,Calm,Calm,-,N/A,,Partly Cloudy,0,2013-11-29 13:52:00
9:52 AM,43.0,28.0,56,30.55,10.0,NE,9.2,-,N/A,,Clear,40,2013-11-29 14:52:00
10:52 AM,46.9,21.0,36,30.56,10.0,East,9.2,-,N/A,,Partly Cloudy,90,2013-11-29 15:52:00
11:52 AM,48.0,19.9,33,30.55,10.0,East,5.8,-,N/A,,Scattered Clouds,100,2013-11-29 16:52:00
12:52 PM,50.0,19.0,29,30.53,10.0,Calm,Calm,-,N/A,,Partly Cloudy,0,2013-11-29 17:52:00
1:52 PM,53.1,19.0,26,30.51,10.0,Variable,4.6,-,N/A,,Partly Cloudy,0,2013-11-29 18:52:00
2:52 PM,54.0,19.0,25,30.51,10.0,ENE,8.1,-,N/A,,Clear,70,2013-11-29 19:52:00
3:52 PM,53.1,19.0,26,30.51,10.0,East,5.8,-,N/A,,Clear,80,2013-11-29 20:52:00
4:52 PM,51.1,21.0,31,30.53,10.0,Variable,6.9,-,N/A,,Partly Cloudy,0,2013-11-29 21:52:00
5:52 PM,48.0,21.0,34,30.53,10.0,East,5.8,-,N/A,,Partly Cloudy,90,2013-11-29 22:52:00
6:52 PM,44.1,21.9,42,30.56,10.0,Variable,4.6,-,N/A,,Clear,0,2013-11-29 23:52:00
7:52 PM,43.0,23.0,45,30.58,10.0,ENE,5.8,-,N/A,,Clear,60,2013-11-30 00:52:00
8:52 PM,42.1,24.1,49,30.58,10.0,ENE,8.1,-,N/A,,Clear,60,2013-11-30 01:52:00
9:52 PM,39.9,24.1,53,30.60,10.0,ENE,6.9,-,N/A,,Clear,60,2013-11-30 02:52:00
10:52 PM,39.0,24.1,55,30.60,10.0,ENE,9.2,-,N/A,,Clear,70,2013-11-30 03:52:00
11:52 PM,37.9,24.1,57,30.60,10.0,ENE,8.1,-,N/A,,Clear,60,2013-11-30 04:52:00